{"data":{"norad_id":61222,"epoch":"2026-05-25T03:29:47.881248Z","epoch_age_seconds":52604,"freshness":"FRESH","line1":"1 61222U 24172C   26145.14569307  .00001679  00000+0  27365-3 0  9990","line2":"2 61222  98.0416 235.2842 0001387 124.1860 235.9479 14.72286914 89965","mean_motion":14.72286914,"eccentricity":0.0001387,"inclination_deg":98.0416,"raan_deg":235.2842,"arg_perigee_deg":124.186,"mean_anomaly_deg":235.9479,"bstar":0.00027365,"rev_number":8996,"period_min":97.807022959113,"perigee_km":652.80150018073,"apogee_km":654.75215307624,"semimajor_km":7031.9138266285,"source":"CELESTRAK","updated_at":"2026-05-25T13:38:02.342453Z"}}